Вернуться в каталог

COSMOS 886 DEB

АктивенUNKNOWN
NORAD 9649·DEBRIS·🇷🇺 Russia

Запущен Dec 27, 1976 с Baikonur Cosmodrome

Loading…

Ближайшие Пролёты (ближайшие 24 часа)

TLE

СвежийSource: Space-Track

Эпоха: Sep 13, 2026, 23:00 UTC

1 09649U 76126F   26256.95901161  .00000051  00000-0  96403-4 0  9995
2 09649  65.9287  98.1547 0918994 242.4526 108.0235 12.71761851274243

Отслеживайте COSMOS 886 DEB в реальном времени с AllMySat

Download on the App Store